Location: *
(44.1392°N, 4.8079°E)
Time: 07:21:57
(UTC+00:00)

Cosmos 1408 Rocket - Pass Details

Date: 21 June 2021
Orbit: 600 x 632 km, 82.6° (Epoch: 02 August)

Event Time Altitude Azimuth Distance (km) Brightness Sun altitude
Exits shadow 03:17:11 - 211° (SSW) 2,261 5.8 -6.5°
Reaches altitude 10° 03:17:52 10° 214° (SW) 2,003 5.5 -6.4°
Maximum altitude 03:22:03 39° 284° (WNW) 949 4.3 -5.8°
Drops below altitude 10° 03:26:16 10° 354° (N) 2,024 6.7 -5.3°
Sets 03:28:39 0° 2° (N) 2,936 7.7 -4.9°
